星链-32341 (STARLINK-32341)

导读

STARLINK-32341是美国SpaceX星链(Starlink)星座的卫星,于2024年10月23日由猎鹰9号火箭从美国佛罗里达州卡纳维拉尔角空间站发射升空,进入近地轨道。星链计划旨在构建全球太空互联网通信系统,STARLINK-32341的入轨进一步扩充了星链低轨卫星规模,助力全球偏远及高需求区域实现高速低延迟互联网覆盖。

基本信息
目录编号:
61639
目录名称:
STARLINK-32341
国际标识:
2024-191U
轨道中心:
EARTH
卫星名称:
星链-32341
卫星全名:
星链-32341 (STARLINK-32341)
卫星状态:
在轨 (已飞行681 天)
发射日期:
2024-10-23 UTC
国别 :
美国 (US)
星等 :
--
轨道信息
数据来源 国际轨道数据
星历时间: 2026-09-04T13:55:12+0800
11小时前
查看轨道信息
半长轴: 6861.282km
偏心率: 0.0000496
轨道倾角: 43.004°
近地点辐角 244.390°
升交点赤经 226.166°
平近点角 115.690°
近地点: 482.804km
远地点: 483.486km
周期: 94.269分钟
每日圈数: 15.275482
详细信息
固有亮度:
5
最大亮度:
2.5
卫星平台:
Starlink V1.0
覆盖范围:
全球
运营商:
太空探索技术公司
运营商所在国:
美国
制造商(研发单位):
太空探索技术公司
制造商所在国:
美国
使用方式:
暂无
卫星简介
Starlink 计划是 SpaceX 推出的全球卫星互联网项目,通过发射低轨道卫星,为全球尤其是偏远地区提供高速、低延迟的互联网服务。自 2019 年起,Starlink 已部署数千颗卫星,旨在缩小全球数字鸿沟,推动互联网普及。该项目还为军事、航空等行业提供通信支持,带来广泛经济效益。
2D轨道图
3D轨道图
轨道高度分析图
轨道倾角分析图
轨道综合分析图
查看轨道综合分析图
交会数据列表
事件ID 空间交会对象 最接近时刻(TCA) 交会距离 交会风险概率(CRP) 交会风险指数(CRI) 操作
CDM_260905-104001-921006-163922
2026-09-05T
10:40:18+0000
0.604 km
远距离
1.124135E-4 高风险 0.76
CDM_260906-075006-163906-632921
2026-09-06T
07:50:27+0000
0.733 km
远距离
3.60299E-5 中风险 0.66
CDM_260906-162806-163906-632921
2026-09-06T
16:28:17+0000
0.846 km
远距离
2.252538E-5 中风险 0.62
CDM_260906-180206-163906-632921
2026-09-06T
18:02:27+0000
0.973 km
远距离
1.403431E-5 中风险 0.58
CDM_260906-204606-163906-364821
2026-09-06T
20:46:50+0000
1.834 km
极远距离
2.81481E-6 低风险 0.44
CDM_260906-061606-163906-632922
2026-09-06T
06:16:17+0000
1.728 km
极远距离
2.1482E-6 低风险 0.42
CDM_260906-092406-163906-632921
2026-09-06T
09:24:36+0000
1.772 km
极远距离
2.00256E-6 低风险 0.41
CDM_260905-133006-124206-163921
OBJECT E (61242)
2026-09-05T
13:30:12+0000
2.096 km
极远距离
1.772495E-6 低风险 0.4
CDM_260906-061106-163906-710721
2026-09-06T
06:11:55+0000
1.478 km
极远距离
1.580028E-6 低风险 0.39
CDM_260906-065806-163906-710721
2026-09-06T
06:58:59+0000
1.502 km
极远距离
1.50926E-6 低风险 0.39